Bryce Canyon, UT

7:31 PM MST on December 15, 2019 (GMT -0700)
Bryce Canyon

Weather History for KBCE - October, 2019

Change the Weather History Date:

Friday, October 4, 2019

  Actual Average Record
Temperature  
Mean Temperature 47 °F -  
Max Temperature 66 °F 63 °F 76 °F (1979)
Min Temperature 28 °F 30 °F 16 °F (1969)
Degree Days  
Heating Degree Days 18    
Moisture  
Dew Point 15 °F    
Average Humidity 32    
Maximum Humidity 65    
Minimum Humidity 9    
Precipitation  
Precipitation 0.00 in - - ()
Sea Level Pressure  
Sea Level Pressure 29.95 in    
Wind  
Wind Speed 8 mph (WSW)    
Max Wind Speed 24 mph    
Max Gust Speed 33 mph    
Visibility 10 miles    
Events      
Averages and records for this station are not official NWS values.
T = Trace of Precipitation, MM = Missing Value Source: NWS Daily Summary

Daily Weather History Graph

Daily Weather History Graph

Search for Another Location

Airport or City:

Astronomy

Oct. 04, 2019 Rise Set
Actual Time 7:26 AM MDT 7:07 PM MDT
Civil Twilight 7:00 AM MDT 7:33 PM MDT
Nautical Twilight 6:30 AM MDT 8:03 PM MDT
Astronomical Twilight 5:59 AM MDT 8:34 PM MDT
Moon 1:56 PM MDT (10/4) 11:45 PM MDT (10/4)
Length of Visible Light 12h 32m
Length of Day
11h 40m
Waxing Crescent, 40% of the Moon is Illuminated
Oct 4
Waxing Crescent
Oct 5
First Quarter
Oct 13
Full
Oct 21
Last Quarter
Oct 27
New

Hourly Weather History & Observations

Time (MDT) Temp. Windchill Dew Point Humidity Pressure Visibility Wind Dir Wind Speed Gust Speed Precip Events Conditions
12:53 AM 34.0 °F 28.8 °F 14.0 °F 44% 29.93 in 10.0 mi West 5.8 mph - N/A   Clear
1:53 AM 28.9 °F - 12.9 °F 51% 29.95 in 10.0 mi Calm Calm - N/A   Clear
2:53 AM 33.1 °F - 17.1 °F 52% 29.92 in 10.0 mi Calm Calm - N/A   Clear
3:53 AM 33.1 °F 26.9 °F 19.9 °F 59% 29.90 in 10.0 mi WSW 6.9 mph - N/A   Clear
4:53 AM 30.9 °F 25.2 °F 19.0 °F 61% 29.91 in 10.0 mi Variable 5.8 mph - N/A   Clear
5:53 AM 46.0 °F 41.4 °F 34.0 °F 63% 29.83 in 10.0 mi SSE 9.2 mph - N/A   Unknown
6:53 AM 42.1 °F 37.7 °F 28.9 °F 60% 29.87 in 10.0 mi SSE 6.9 mph - N/A   Clear
7:53 AM 41.0 °F - 30.0 °F 65% 29.92 in 10.0 mi Calm Calm - N/A   Clear
8:53 AM 50.0 °F - 32.0 °F 50% 29.94 in 10.0 mi NNW 4.6 mph - N/A   Clear
9:26 AM 55.0 °F - 21.9 °F 28% 30.17 in 10.0 mi SSW 13.8 mph - N/A   Clear
9:53 AM 55.0 °F - 19.9 °F 25% 29.95 in 10.0 mi SSW 12.7 mph 24.2 mph N/A   Clear
10:53 AM 59.0 °F - 19.0 °F 21% 29.94 in 10.0 mi SSW 16.1 mph 23.0 mph N/A   Clear
11:53 AM 61.0 °F - 18.0 °F 19% 29.94 in 10.0 mi SSW 19.6 mph 32.2 mph N/A   Clear
12:53 PM 63.0 °F - 12.9 °F 14% 29.94 in 10.0 mi SW 24.2 mph 32.2 mph N/A   Clear
1:53 PM 64.9 °F - 14.0 °F 14% 29.94 in 10.0 mi WSW 12.7 mph 24.2 mph N/A   Clear
2:53 PM 66.9 °F - 8.1 °F 10% 29.91 in 10.0 mi SW 23.0 mph 29.9 mph N/A   Clear
3:53 PM 64.9 °F - 5.0 °F 9% 29.91 in 10.0 mi SW 24.2 mph 33.4 mph N/A   Clear
4:53 PM 64.9 °F - 5.0 °F 9% 29.92 in 10.0 mi WSW 18.4 mph 31.1 mph N/A   Clear
5:53 PM 62.1 °F - 7.0 °F 11% 29.89 in 10.0 mi WSW 21.9 mph 27.6 mph N/A   Clear
6:53 PM 57.9 °F - 7.0 °F 13% 29.94 in 10.0 mi WNW 9.2 mph - N/A   Clear
7:53 PM 50.0 °F - 6.1 °F 17% 29.99 in 10.0 mi WSW 5.8 mph - N/A   Clear
8:53 PM 41.0 °F - 5.0 °F 23% 30.00 in 10.0 mi Calm Calm - N/A   Clear
9:53 PM 44.1 °F 38.6 °F 6.1 °F 21% 30.00 in 10.0 mi WNW 10.4 mph - N/A   Clear
10:53 PM 35.1 °F 31.0 °F 8.1 °F 33% 30.05 in 10.0 mi NNW 4.6 mph - N/A   Clear
11:53 PM 37.0 °F 30.4 °F 10.9 °F 34% 30.05 in 10.0 mi NNW 9.2 mph - N/A   Clear